Home > Weather > Ny-Ålesund > Past weeks

Flag for Norway Past Weather in Ny-Ålesund, Svalbard, Norway — Yesterday and Last 2 Weeks

Now
39 °F

Chilly.


Feels Like: 37 °F
Forecast: 27 / 31 °F
Wind: 3 mph from Southwest

Location: Ny Alesund

Current Time: Aug 25, 2016 at 5:05:49 AM

Latest Report: Aug 25, 2016 at 3:00 AM


Visibility: N/A

Pressure: 29.66 "Hg

Humidity: 80%

Dew Point: 34 °F

Location of Ny-ÅlesundLocation

Past Weather in Ny-Ålesund — Graph

°F

Ny-Ålesund Temperature Yesterday

Maximum temperature yesterday: 41 °F (at 1:00 PM)
Minimum temperature yesterday: 32 °F (at 3:00 AM)
Average temperature yesterday: 37 °F

High & Low Weather Summary for the Past Weeks

 TemperatureHumidityPressure
High49 °F (Aug 18, 5:00 PM)87% (Aug 18, 7:00 AM)30.19 "Hg (Aug 18, 7:00 AM)
Low32 °F (Aug 24, 3:00 AM)46% (Aug 23, 12:00 PM)29.53 "Hg (Aug 21, 2:00 AM)
Average41 °F72%29.80 "Hg
* Reported Aug 10 3:00 AM — Aug 25 3:00 AM, Ny-Ålesund, Weather by CustomWeather, © 2016

Note: Actual official high and low records may vary slightly from our data, if they occured in-between our weather recording intervals... More about our weather records

Advertising

Ny-Ålesund Weather History for the Previous 24 Hours

Scroll right to see more
 ConditionsComfort  
Time TempWeatherWind HumidityBarometerVisibility
3:00 AM
Thu, Aug 25
39 °FChilly.3 mph80%29.66 "HgN/A
2:00 AM39 °FChilly.3 mph83%29.68 "HgN/A
1:00 AM40 °FChilly.5 mph80%29.70 "HgN/A
12:00 AM39 °FChilly.2 mph82%29.72 "HgN/A
11:00 PM
Wed, Aug 24
40 °FQuite cool.1 mph78%29.73 "HgN/A
10:00 PM40 °FChilly.2 mph77%29.74 "HgN/A
9:00 PM41 °FQuite cool.5 mph74%29.75 "HgN/A
8:00 PM41 °FOvercast.3 mph71%29.78 "Hg19 mi
7:00 PM40 °FChilly.6 mph73%29.80 "HgN/A
6:00 PM40 °FQuite cool.3 mph71%29.82 "HgN/A
5:00 PM41 °FQuite cool.3 mph68%29.85 "HgN/A
4:00 PM40 °FQuite cool.3 mph65%29.89 "HgN/A
3:00 PM40 °FQuite cool.3 mph64%29.91 "HgN/A
2:00 PM40 °FOvercast.5 mph62%29.93 "Hg47 mi
1:00 PM41 °FQuite cool.1 mph57%29.95 "HgN/A
12:00 PM40 °FQuite cool.3 mph59%29.97 "HgN/A
11:00 AM39 °FChilly.1 mph58%29.99 "HgN/A
10:00 AM38 °FChilly.1 mph60%30.01 "HgN/A
9:00 AM37 °FChilly.1 mph56%30.03 "HgN/A
8:00 AM36 °FOvercast.1 mph58%30.04 "Hg47 mi
7:00 AM35 °FChilly.3 mph65%30.06 "HgN/A
6:00 AM33 °FChilly.3 mph68%30.09 "HgN/A
5:00 AM34 °FChilly.3 mph67%30.12 "HgN/A
Weather by CustomWeather, © 2016

See weather overviewHow to use our weather pages